Temperature
23 24 23 23 23 23 22 22 22 22 23 23 23 23 23 22 22 21 21 20 20 19 19 18 18 18 18 17 17 17 17 17 17 17 16 16 16 16 16 16 16 16 16 16
22 23 23 23 23 23 23 23 23 23 23 24 24 24 23 22 22 21 21 20 20 19 19 19 18 18 18 18 17 17 17 17 16 16 16 16 16 16 16 16 16 16 16 16
21 22 22 21 23 23 23 23 23 22 23 24 24 23 23 22 22 21 21 20 20 19 19 19 18 18 18 18 17 17 17 17 16 16 16 16 16 16 16 16 16 16 16 16
20 21 20 22 24 24 23 23 23 23 24 24 23 23 22 22 21 21 20 20 20 19 19 19 18 18 18 18 17 17 17 17 16 16 16 16 16 16 16 16 15 15 15 15
19 19 20 22 24 24 23 23 24 23 24 23 23 23 22 22 21 21 20 20 20 19 19 19 19 18 18 18 18 17 17 17 16 16 16 16 16 16 16 15 15 15 15 15
18 18 19 21 23 24 23 22 23 23 23 23 23 21 21 21 21 20 20 20 19 19 19 19 19 18 18 18 18 17 17 17 16 16 16 16 16 16 15 15 15 15 15 15
18 18 20 22 23 23 21 21 22 23 23 22 22 21 21 21 20 20 20 19 19 19 19 19 19 18 18 18 18 17 17 17 16 16 16 16 16 15 15 15 15 15 15 15
18 18 19 22 22 22 22 22 22 22 22 22 21 21 21 20 20 19 19 19 19 18 18 18 19 18 18 18 17 17 17 17 16 16 16 15 15 15 15 15 15 14 14 14
19 19 21 22 22 22 22 22 22 21 21 21 21 21 20 20 19 19 19 18 18 18 18 18 18 18 18 17 17 17 17 16 16 16 15 15 15 15 15 15 14 14 14 14
20 20 21 21 21 21 21 21 21 21 21 21 20 20 19 19 19 18 18 18 18 18 18 18 18 18 18 17 17 17 16 16 16 15 15 15 15 15 14 14 14 14 14 14
19 20 21 21 20 20 20 20 20 20 20 20 20 19 19 18 18 18 18 18 17 17 17 17 17 17 17 17 17 16 16 16 15 15 15 15 15 14 14 14 14 14 14 14
18 19 20 20 20 20 19 19 19 19 19 19 19 19 18 18 18 18 17 17 17 17 17 17 17 17 17 17 16 16 16 15 15 15 15 14 14 14 14 14 14 14 14 14
18 18 19 18 19 19 19 19 19 19 19 19 19 18 18 18 17 17 17 17 16 16 16 16 16 16 16 16 16 16 15 15 15 15 14 14 14 14 14 13 13 13 13 13
17 17 18 18 18 18 18 18 19 18 18 18 18 18 17 17 17 17 17 16 16 16 16 16 16 16 16 15 15 15 15 15 14 14 14 14 14 14 14 14 13 13 13 13
16 17 17 17 17 18 18 18 18 18 18 18 17 17 17 17 16 16 16 16 16 16 16 15 15 15 15 15 15 15 14 14 14 14 14 13 13 13 13 13 13 13 13 13
16 16 16 16 17 17 17 17 17 17 17 17 17 16 16 16 16 16 16 16 15 15 15 15 15 15 15 15 14 14 14 14 14 14 13 13 13 13 13 13 13 13 13 13
15 16 16 16 16 16 16 17 17 16 16 16 16 16 16 15 15 15 15 15 15 15 15 15 15 14 14 14 14 14 14 14 13 13 13 13 13 13 12 12 12 12 12 12
15 15 15 16 15 16 16 16 16 16 16 15 15 15 15 15 15 15 15 15 15 14 14 14 14 14 14 14 14 14 14 13 13 13 13 13 13 12 12 12 12 12 12 12
14 14 15 15 15 15 15 15 15 15 15 15 15 14 14 14 14 14 14 14 14 14 14 14 14 14 14 14 13 13 13 13 13 13 13 12 12 12 12 12 12 12 11 11
13 14 14 14 14 14 14 14 14 14 14 14 14 14 14 14 14 14 14 14 14 14 14 14 14 14 13 13 13 13 13 13 13 12 12 12 12 12 12 11 11 11 11 10
13 13 13 13 13 13 13 13 13 13 13 14 13 13 13 13 13 13 13 13 13 13 13 13 13 13 13 13 13 12 12 12 12 12 12 12 12 11 11 11 11 10 10 10
12 12 12 13 13 13 13 13 13 13 13 13 13 13 13 13 13 13 13 13 13 13 13 13 13 13 12 12 12 12 12 12 12 12 12 11 11 11 10 10 10 10 10 9
12 12 12 12 12 12 12 12 12 12 12 12 12 12 12 12 12 12 12 12 12 12 12 12 12 12 12 12 12 12 11 11 11 11 11 11 10 10 10 10 10 9 9 9
11 11 11 11 11 11 11 11 11 11 11 12 12 12 12 12 12 12 12 12 12 12 12 12 12 12 11 11 11 11 11 11 11 10 10 10 10 10 10 9 9 9 9 8
10 10 10 10 10 10 10 10 11 11 11 11 11 11 11 11 11 11 11 11 11 11 11 11 11 11 11 11 10 10 10 10 10 10 10 10 9 9 9 9 9 8 8 8
9 9 9 9 10 10 10 10 10 10 10 10 10 10 10 10 10 10 10 10 10 10 10 10 10 10 10 10 10 9 9 9 9 9 9 9 9 9 8 8 8 8 8 7
9 9 9 9 9 9 9 9 9 9 9 9 9 9 10 10 10 10 10 10 9 10 10 10 9 9 9 9 9 9 9 9 9 9 8 8 8 8 8 8 7 7 7 6
Wind_Speed
11 9 9 11 11 12 13 12 10 9 6 4 4 5 6 6 6 6 6 7 7 7 8 8 8 8 9 9 9 9 9 7 7 7 6 5 6 5 4 3 4 3 4 4
13 12 11 13 13 14 14 13 13 11 8 3 2 4 4 6 6 6 6 7 7 7 8 9 9 8 9 9 9 9 9 8 7 7 7 6 6 6 5 4 3 3 3 4
12 11 11 13 13 13 11 12 11 11 7 3 2 2 2 4 5 5 5 6 7 7 8 9 10 9 9 10 9 10 10 9 8 7 7 6 6 6 6 4 4 4 4 5
10 10 12 8 6 8 9 9 9 7 4 3 2 2 2 3 4 4 5 5 6 6 6 7 9 10 9 10 10 10 9 9 9 9 8 7 6 7 6 5 5 4 4 5
8 11 10 9 7 8 7 7 6 6 5 4 3 3 3 3 3 3 4 5 5 5 5 7 8 10 9 10 10 10 9 9 10 9 9 8 7 7 6 6 5 5 4 5
8 9 9 7 4 3 6 7 4 4 3 4 5 4 3 4 4 3 4 4 4 4 4 6 7 9 9 9 10 10 9 9 9 10 9 9 8 7 5 6 6 6 5 4
11 10 7 5 4 4 6 3 2 3 2 2 3 2 2 4 5 4 4 4 4 4 4 4 6 8 8 8 9 9 8 8 9 9 9 8 7 6 6 6 6 6 6 4
11 11 8 5 5 5 1 1 2 2 1 1 1 2 3 4 5 4 4 4 4 4 4 4 6 7 8 7 7 9 9 9 8 8 8 8 7 6 6 6 6 5 5 4
7 6 3 2 2 1 1 0 1 1 0 0 1 3 4 4 4 4 3 3 4 4 4 4 5 6 8 7 7 9 9 9 8 8 7 7 8 7 6 6 5 5 5 4
8 7 6 4 2 2 0 1 0 1 0 0 2 3 3 3 4 4 3 3 3 4 5 4 4 5 6 7 8 9 9 8 8 8 7 7 6 6 5 5 5 5 5 5
9 7 5 5 4 3 2 0 0 0 0 1 2 3 3 2 4 4 4 3 3 4 5 5 5 5 6 7 8 8 8 8 8 7 7 6 5 4 5 4 4 5 4 4
7 5 4 3 3 3 2 2 1 1 1 1 2 3 2 2 3 4 4 4 4 4 4 5 5 6 6 7 8 8 7 7 6 6 6 6 7 5 7 6 8 8 6 6
6 5 5 4 4 4 3 3 3 2 2 2 2 2 3 2 3 4 5 5 5 4 4 4 5 5 5 7 7 7 7 6 6 6 7 7 7 7 6 5 8 8 7 8
4 4 5 5 4 2 3 4 3 3 3 2 1 2 3 3 3 4 4 5 5 5 5 5 5 6 5 6 7 7 6 7 6 5 6 7 7 6 6 7 5 3 4 6
7 6 6 5 5 3 3 3 3 3 3 2 2 2 3 4 4 4 4 5 5 5 5 6 5 5 5 6 6 7 6 5 6 5 5 5 6 6 6 6 5 5 4 3
7 7 6 7 6 5 4 4 3 3 2 2 2 2 3 4 4 4 4 5 5 5 6 6 6 5 5 6 6 6 5 8 7 6 5 5 6 6 6 6 6 5 5 5
8 8 7 6 5 4 4 4 3 3 2 2 2 3 4 5 4 4 4 4 4 4 5 6 6 5 5 6 6 5 5 6 8 6 5 5 5 6 6 6 6 5 5 5
9 8 7 5 4 5 4 3 3 2 2 3 3 4 4 5 5 5 5 5 5 5 5 6 6 6 6 6 6 6 6 5 5 5 4 4 4 5 5 6 6 6 5 5
7 6 6 5 4 4 3 3 3 2 2 3 4 4 4 4 5 5 5 5 5 5 4 5 7 7 7 7 6 5 6 6 5 4 4 5 5 4 5 5 5 5 6 6
4 4 4 4 3 3 3 3 3 3 3 4 5 4 4 4 5 5 5 4 4 4 5 6 7 6 6 6 6 5 6 6 6 5 5 5 5 5 5 5 5 5 5 5
4 3 3 3 3 2 3 3 3 3 3 4 5 5 4 4 5 5 5 4 3 4 5 6 5 5 5 5 5 5 5 6 5 5 5 5 5 5 5 5 5 5 5 5
3 3 3 3 3 3 2 3 3 3 3 4 4 5 5 5 5 5 4 3 4 6 5 4 4 6 7 6 4 5 5 5 5 5 5 5 5 5 5 5 5 5 5 5
2 2 3 3 3 2 2 2 2 3 4 4 4 5 5 5 5 5 4 3 4 6 5 4 7 9 8 5 4 5 5 5 5 5 5 5 5 5 5 6 5 5 5 5
1 2 2 2 3 3 3 2 2 2 3 3 4 4 5 5 4 3 4 6 6 6 4 7 10 10 7 4 4 5 5 5 5 5 5 5 5 5 5 6 6 6 6 7
2 2 2 3 3 2 2 3 3 3 3 3 4 4 4 4 5 5 5 6 7 7 5 7 10 9 6 4 5 5 5 5 6 6 5 5 5 5 5 5 6 6 6 6
2 2 2 2 2 2 2 2 3 3 3 3 3 4 4 5 5 5 5 6 7 7 5 5 6 6 5 5 5 5 5 6 6 5 6 6 6 6 6 6 7 6 6 7
2 2 2 2 2 2 2 2 3 3 3 3 4 4 4 4 5 5 6 6 5 5 5 5 5 5 4 5 5 5 5 5 5 5 5 5 5 6 7 7 7 7 7 8
Wind_Direction
253 250 247 240 235 234 241 244 253 260 259 235 174 164 156 160 159 159 167 164 161 165 166 165 168 171 166 165 161 163 165 173 169 165 161 152 145 144 142 130 126 115 103 102
255 250 251 253 243 235 236 242 252 260 264 265 191 164 163 166 161 171 180 175 167 171 173 174 173 176 166 164 164 163 168 174 168 165 154 150 147 140 135 127 123 113 109 106
255 252 251 248 235 231 232 235 245 253 258 240 224 187 171 158 167 180 182 173 171 179 182 180 177 179 174 167 167 170 173 172 167 162 151 154 151 138 134 129 113 107 104 101
253 251 245 240 229 225 232 233 233 243 248 229 197 151 152 151 163 174 176 172 176 181 184 179 177 176 173 169 173 176 176 170 162 159 154 154 148 144 144 136 131 127 123 117
242 244 247 246 230 216 227 236 225 231 230 216 170 175 161 144 159 181 175 171 176 180 183 182 175 171 173 173 174 176 176 169 163 159 155 155 155 154 153 145 143 142 136 132
239 242 239 235 211 210 238 235 213 227 227 207 186 196 194 172 163 165 159 156 166 174 185 181 173 167 172 175 173 175 173 166 161 158 157 159 162 159 151 147 149 142 138 144
233 241 246 240 210 203 221 222 191 213 221 210 212 176 162 158 140 133 139 147 155 172 187 180 167 164 169 169 170 163 155 153 154 157 158 158 158 153 146 143 145 146 146 144
222 231 234 210 202 209 160 99 155 171 193 182 197 142 115 116 122 125 129 142 155 168 174 168 161 162 166 166 159 146 144 148 152 153 157 157 153 153 150 150 153 156 150 148
217 222 221 185 197 169 97 24 39 59 59 199 178 112 108 118 122 131 140 144 150 158 162 160 160 164 160 155 144 140 142 147 149 149 149 150 153 156 156 157 161 165 159 161
232 226 219 206 188 172 234 259 359 15 116 162 148 131 126 134 137 142 144 142 144 148 151 151 150 150 148 143 141 144 149 150 150 154 152 151 152 158 160 167 173 174 167 167
245 243 230 200 200 200 199 228 226 119 225 147 124 138 140 148 147 147 144 140 140 149 155 157 152 145 145 145 145 147 148 155 158 156 152 150 143 144 160 160 169 169 168 162
241 242 239 225 197 205 208 243 267 267 227 168 161 157 156 163 151 150 150 146 142 147 157 161 154 145 142 145 147 149 153 159 159 154 152 148 139 115 76 93 105 110 113 123
264 277 266 270 243 209 225 236 237 241 248 216 184 165 169 162 157 154 154 153 153 156 158 151 143 141 143 146 147 152 158 160 156 156 155 155 151 147 134 83 81 88 100 113
267 273 256 256 255 232 228 242 243 237 230 206 175 164 162 153 154 158 159 153 149 148 150 146 143 144 145 146 150 156 155 153 149 154 158 158 157 158 154 148 137 111 92 117
250 255 255 265 267 250 237 232 234 235 208 178 163 168 160 155 160 157 148 143 143 145 145 141 139 144 147 148 152 152 148 148 148 147 147 150 150 151 152 151 148 143 131 120
244 239 234 243 241 233 222 220 224 233 213 177 164 162 152 149 144 139 138 143 148 150 147 144 144 147 149 147 147 144 140 141 141 140 144 149 151 154 158 158 159 155 153 151
243 235 231 222 224 233 218 212 219 221 211 178 165 148 139 136 136 137 137 138 139 140 143 143 144 142 143 141 138 135 134 140 139 141 148 154 158 161 162 159 158 155 157 157
237 238 237 222 213 223 215 201 203 208 193 170 158 148 148 154 158 148 139 134 131 128 132 136 139 143 144 140 136 137 141 147 151 151 148 150 153 153 153 151 151 151 145 142
233 234 225 217 219 216 204 185 183 184 166 158 154 152 157 157 146 141 139 139 137 136 138 133 139 145 142 142 141 143 144 144 145 145 141 142 140 135 138 143 148 149 147 141
222 228 211 206 205 195 187 177 170 163 162 156 145 143 146 140 136 142 142 136 131 133 134 132 139 138 137 142 139 140 141 146 148 146 142 143 142 142 144 146 146 144 141 140
202 194 185 185 178 171 176 174 163 162 161 150 148 152 151 144 139 137 133 123 108 108 124 131 136 133 134 138 137 138 141 143 144 144 144 145 144 144 144 141 140 140 139 135
174 165 169 168 164 170 173 174 166 164 156 144 144 144 140 139 135 126 117 123 127 121 125 132 128 128 132 132 137 132 134 137 138 137 139 141 142 143 141 137 134 131 130 129
140 141 148 159 168 170 166 154 152 159 155 152 153 152 149 143 142 143 142 128 125 125 123 123 122 122 122 127 133 132 131 130 129 130 131 133 135 135 134 130 127 124 123 124
131 128 145 166 171 164 156 144 136 135 133 133 139 142 139 131 126 122 121 125 125 125 120 129 129 129 127 131 133 134 134 132 130 128 127 126 126 127 128 128 128 127 126 124
136 140 147 148 146 143 137 131 124 122 119 121 121 122 128 127 128 121 122 128 130 126 123 134 135 136 137 135 135 132 128 129 131 131 132 132 132 131 129 128 128 129 127 125
93 109 112 119 123 126 135 133 133 131 128 119 111 107 106 106 112 118 123 129 130 133 133 134 137 136 134 128 127 125 124 126 125 125 130 130 132 132 131 130 126 129 128 127
87 99 109 109 103 103 110 118 127 129 130 127 122 115 114 115 119 123 125 127 131 131 127 128 133 136 130 126 124 124 124 124 125 126 129 130 131 130 131 130 130 128 127 127
Height
1475 1475 1476 1479 1481 1483 1486 1488 1493 1489 1486 1482 1481 1482 1484 1487 1489 1492 1494 1496 1499 1501 1504 1507 1511 1514 1517 1520 1523 1527 1530 1533 1536 1539 1542 1544 1547 1549 1551 1552 1553 1555 1556 1557
1477 1473 1474 1476 1476 1477 1480 1481 1483 1483 1481 1476 1477 1480 1482 1485 1487 1490 1492 1494 1497 1500 1502 1505 1508 1511 1514 1517 1521 1524 1528 1531 1535 1538 1540 1543 1545 1547 1549 1551 1553 1554 1555 1557
1482 1474 1476 1480 1471 1472 1474 1474 1477 1481 1478 1475 1476 1478 1480 1483 1485 1487 1490 1492 1495 1497 1500 1503 1505 1509 1512 1515 1519 1522 1526 1529 1532 1536 1538 1541 1544 1546 1548 1550 1552 1554 1555 1556
1481 1481 1490 1472 1461 1463 1467 1468 1469 1471 1472 1473 1474 1477 1479 1482 1484 1486 1488 1490 1492 1495 1498 1501 1503 1506 1510 1513 1517 1520 1524 1527 1530 1533 1536 1539 1542 1544 1547 1549 1551 1553 1554 1555
1482 1484 1478 1466 1459 1460 1465 1468 1465 1467 1469 1471 1473 1476 1478 1480 1482 1484 1486 1488 1490 1493 1495 1498 1501 1504 1507 1511 1514 1518 1521 1524 1527 1530 1533 1536 1540 1542 1545 1547 1549 1551 1553 1554
1480 1484 1483 1467 1458 1458 1463 1469 1464 1465 1467 1469 1471 1477 1478 1479 1481 1482 1484 1486 1488 1490 1493 1496 1498 1501 1505 1508 1511 1514 1518 1521 1525 1528 1531 1534 1537 1540 1543 1546 1548 1550 1551 1553
1479 1480 1470 1459 1457 1458 1471 1470 1463 1464 1466 1468 1469 1473 1476 1476 1479 1481 1482 1484 1486 1488 1490 1493 1496 1499 1502 1505 1508 1512 1515 1519 1522 1526 1529 1532 1535 1538 1541 1543 1546 1548 1550 1552
1472 1477 1472 1455 1456 1459 1462 1461 1462 1464 1465 1467 1469 1471 1473 1474 1476 1479 1481 1482 1484 1486 1488 1491 1494 1497 1500 1503 1506 1509 1513 1516 1520 1524 1527 1530 1533 1536 1539 1541 1544 1546 1548 1550
1460 1462 1455 1454 1455 1458 1459 1461 1462 1463 1465 1467 1468 1470 1472 1474 1475 1477 1479 1481 1482 1484 1487 1489 1492 1495 1497 1500 1504 1507 1511 1514 1518 1521 1525 1527 1530 1533 1536 1539 1541 1544 1546 1548
1453 1452 1452 1453 1455 1457 1459 1460 1462 1463 1464 1465 1467 1469 1471 1473 1475 1476 1478 1480 1481 1483 1485 1488 1490 1493 1496 1499 1502 1505 1509 1512 1515 1519 1522 1525 1527 1530 1533 1536 1539 1541 1543 1545
1451 1449 1450 1452 1454 1456 1458 1459 1461 1462 1463 1464 1466 1468 1470 1472 1473 1475 1477 1478 1480 1482 1484 1486 1489 1492 1495 1498 1500 1503 1507 1510 1513 1516 1519 1522 1525 1528 1530 1533 1536 1538 1541 1543
1450 1449 1450 1451 1452 1454 1457 1458 1460 1461 1462 1464 1465 1467 1469 1470 1472 1473 1475 1477 1478 1480 1482 1485 1487 1490 1493 1496 1498 1501 1504 1507 1511 1513 1517 1520 1523 1526 1529 1531 1534 1536 1539 1541
1447 1448 1449 1450 1451 1453 1455 1457 1458 1460 1461 1462 1464 1465 1467 1468 1470 1472 1474 1475 1477 1479 1481 1483 1486 1488 1491 1494 1497 1499 1502 1505 1508 1511 1514 1517 1520 1523 1525 1529 1531 1534 1536 1538
1445 1446 1447 1448 1449 1451 1453 1455 1456 1458 1459 1461 1462 1464 1465 1466 1468 1470 1472 1474 1476 1478 1480 1482 1484 1487 1489 1492 1495 1497 1500 1503 1505 1508 1511 1514 1517 1520 1523 1525 1528 1530 1533 1536
1443 1444 1445 1446 1448 1449 1451 1453 1455 1456 1457 1459 1460 1462 1463 1464 1466 1468 1470 1472 1474 1476 1479 1481 1483 1485 1488 1490 1492 1495 1498 1501 1503 1506 1509 1512 1515 1518 1521 1523 1526 1528 1530 1533
1441 1442 1443 1445 1445 1447 1449 1451 1452 1454 1455 1457 1458 1460 1461 1463 1464 1466 1468 1470 1472 1475 1477 1479 1481 1484 1486 1488 1491 1494 1496 1499 1502 1504 1507 1510 1513 1516 1518 1521 1523 1525 1527 1529
1438 1438 1440 1441 1443 1445 1446 1448 1450 1452 1453 1455 1456 1458 1459 1461 1463 1465 1467 1469 1471 1473 1475 1477 1480 1482 1485 1487 1489 1492 1494 1497 1500 1503 1506 1508 1511 1514 1516 1518 1520 1522 1524 1526
1434 1435 1436 1438 1440 1442 1444 1446 1448 1449 1451 1452 1454 1456 1458 1459 1461 1463 1465 1468 1470 1472 1474 1476 1478 1480 1483 1485 1488 1490 1493 1496 1498 1501 1504 1507 1509 1512 1514 1516 1518 1520 1522 1524
1430 1431 1433 1435 1437 1440 1441 1443 1446 1447 1449 1450 1452 1454 1456 1458 1460 1462 1464 1466 1468 1470 1473 1475 1477 1479 1481 1484 1487 1489 1492 1494 1497 1500 1502 1505 1507 1509 1511 1513 1515 1517 1519 1521
1427 1428 1430 1433 1435 1438 1440 1442 1444 1446 1447 1449 1451 1453 1455 1457 1458 1460 1463 1464 1466 1469 1471 1473 1476 1478 1480 1483 1485 1488 1490 1493 1495 1498 1501 1503 1505 1507 1509 1511 1513 1515 1517 1518
1424 1426 1428 1431 1433 1436 1438 1440 1442 1444 1445 1447 1449 1451 1453 1455 1457 1459 1461 1463 1465 1468 1470 1472 1474 1477 1479 1482 1484 1487 1489 1491 1494 1496 1498 1501 1503 1505 1507 1509 1510 1512 1514 1516
1423 1425 1427 1429 1432 1434 1436 1438 1440 1442 1444 1445 1447 1449 1451 1453 1455 1458 1460 1462 1464 1466 1468 1471 1473 1475 1478 1480 1483 1485 1487 1490 1492 1494 1496 1499 1501 1502 1504 1506 1508 1510 1512 1514
1422 1424 1426 1427 1430 1432 1435 1436 1438 1440 1442 1443 1445 1447 1449 1451 1453 1455 1458 1460 1462 1465 1467 1469 1471 1474 1476 1479 1481 1483 1486 1488 1490 1492 1494 1497 1499 1500 1502 1504 1506 1507 1509 1511
1421 1423 1425 1427 1429 1431 1433 1435 1436 1438 1440 1442 1444 1445 1447 1449 1452 1454 1456 1458 1460 1463 1465 1467 1469 1472 1474 1477 1479 1481 1483 1486 1488 1490 1492 1494 1496 1498 1500 1501 1503 1505 1507 1509
1421 1423 1424 1426 1427 1429 1431 1433 1435 1436 1438 1440 1442 1444 1446 1448 1449 1451 1454 1456 1458 1461 1463 1465 1468 1470 1472 1475 1477 1479 1481 1483 1485 1487 1489 1491 1494 1496 1497 1499 1501 1503 1505 1506
1421 1422 1424 1425 1426 1428 1430 1431 1433 1435 1437 1438 1440 1442 1444 1446 1448 1450 1452 1454 1457 1459 1461 1463 1465 1468 1470 1472 1474 1476 1478 1481 1483 1485 1487 1489 1491 1493 1495 1497 1499 1500 1502 1504
1421 1422 1423 1425 1427 1428 1429 1430 1432 1433 1435 1436 1438 1440 1442 1444 1446 1448 1450 1453 1455 1457 1459 1461 1463 1466 1468 1470 1472 1474 1476 1478 1481 1483 1485 1487 1489 1491 1493 1495 1496 1498 1500 1502